Home > Weather > Neenah > Past weeks

Flag for USA Weather for the Past 2 Weeks in Neenah, Wisconsin, USA

Now
55 °F

Partly sunny.


Feels Like: 54 °F
Forecast: 48 / 81 °F
Wind: 7 mph from Southwest

Location: Appleton / Outagamie

Current Time: May 6, 2016 at 8:40:50 AM

Latest Report: May 6, 2016 at 7:45 AM


Visibility: 10 mi

Pressure: 29.90 "Hg

Humidity: 55%

Dew Point: 39 °F

Location of NeenahLocation

Historic Weather in Neenah — Graph

°F

Neenah Temperature Yesterday

Maximum temperature yesterday: 64 °F (at 4:45 PM)
Minimum temperature yesterday: 34 °F (at 4:35 AM)
Average temperature yesterday: 45 °F

High & Low Weather Summary for the Past Weeks

 TemperatureHumidityPressure
High68 °F (May 3, 1:45 PM)100% (Apr 21, 6:45 AM)30.23 "Hg (Apr 21, 6:45 AM)
Low32 °F (Apr 27, 4:35 AM)14% (Apr 27, 5:45 PM)29.61 "Hg (Apr 25, 4:45 PM)
Average45 °F67%29.96 "Hg
* Reported Apr 21 6:45 AM — May 6 6:45 AM, Neenah, Weather by CustomWeather, © 2016

Note: Actual official high and low records may vary slightly from our data, if they occured in-between our weather recording intervals... More about our weather records

Advertising

Neenah Weather History for the Previous 24 Hours

Scroll right to see more
 ConditionsComfort  
Time TempWeatherWind HumidityBarometerVisibility
6:45 AM
Fri, May 6
48 °FScattered clouds.6 mph66%29.89 "Hg10 mi
5:45 AM48 °FPassing clouds.7 mph62%29.88 "Hg10 mi
5:15 AM50 °FPassing clouds.6 mph54%29.88 "Hg10 mi
4:55 AM48 °FPassing clouds.7 mph62%29.88 "Hg10 mi
4:35 AM46 °FClear.5 mph66%29.89 "Hg10 mi
4:15 AM46 °FClear.6 mph62%29.89 "Hg10 mi
3:55 AM50 °FClear.8 mph54%29.89 "Hg10 mi
3:35 AM50 °FClear.6 mph54%29.89 "Hg10 mi
3:15 AM48 °FClear.9 mph58%29.89 "Hg10 mi
2:55 AM48 °FClear.7 mph58%29.90 "Hg10 mi
2:15 AM48 °FClear.6 mph58%29.89 "Hg10 mi
1:55 AM46 °FClear.5 mph62%29.90 "Hg10 mi
1:35 AM50 °FClear.No wind54%29.90 "Hg10 mi
1:15 AM50 °FClear.No wind54%29.91 "Hg10 mi
12:55 AM50 °FPassing clouds.3 mph58%29.90 "Hg10 mi
12:35 AM50 °FPassing clouds.No wind58%29.91 "Hg10 mi
12:15 AM50 °FClear.6 mph54%29.91 "Hg10 mi
11:55 PM
Thu, May 5
50 °FClear.No wind58%29.92 "Hg10 mi
11:35 PM50 °FClear.6 mph54%29.92 "Hg10 mi
11:15 PM50 °FClear.6 mph58%29.92 "Hg10 mi
10:45 PM52 °FPassing clouds.3 mph54%29.93 "Hg10 mi
9:45 PM52 °FPassing clouds.3 mph54%29.92 "Hg10 mi
8:45 PM54 °FScattered clouds.7 mph51%29.92 "Hg10 mi
7:45 PM57 °FScattered clouds.7 mph44%29.92 "Hg10 mi
5:45 PM64 °FScattered clouds.7 mph34%29.93 "Hg10 mi
4:45 PM64 °FScattered clouds.5 mph28%29.95 "Hg10 mi
3:45 PM63 °FScattered clouds.6 mph34%29.96 "Hg10 mi
2:45 PM61 °FSunny.6 mph36%29.98 "Hg10 mi
1:45 PM57 °FSunny.6 mph41%29.99 "Hg10 mi
12:45 PM55 °FSunny.3 mph47%30.01 "Hg10 mi
11:45 AM54 °FSunny.5 mph51%30.03 "Hg10 mi
10:45 AM48 °FSunny.No wind58%30.04 "Hg10 mi
9:45 AM46 °FSunny.No wind62%30.04 "Hg10 mi
8:45 AM45 °FSunny.7 mph61%30.03 "Hg10 mi
Weather by CustomWeather, © 2016

See weather overviewHow to use our weather pages